Terug naar catalogus

CZ-6A DEB

ActiefPO
NORAD 54944·DEBRIS·🇨🇳 China

Gelanceerd Nov 11, 2022 vanaf Taiyuan Satellite Launch Center

Loading…

Volgende Passages (komende 24 uur)

TLE

VersSource: Space-Track

Epoch: Sep 13, 2026, 23:08 UTC

1 54944U 22151SH  26256.96449240  .00000113  00000-0  21770-3 0  9991
2 54944  99.0347  83.7094 0509265 323.2863  33.4350 13.12971568183424

Volg CZ-6A DEB in realtime met AllMySat

Download on the App Store